Weather History for KBRL - March, 2013

Change the Weather History Date:

Sunday, March 3, 2013

  Actual Average Record
Temperature  
Mean Temperature 17 °F 36 °F  
Max Temperature 30 °F 45 °F 78 °F (1983)
Min Temperature 4 °F 27 °F -8 °F (2014)
Degree Days  
Heating Degree Days 48 29  
Month to date heating degree days 132 89  
Since 1 July heating degree days 4503 4467  
Cooling Degree Days 0 0  
Month to date cooling degree days 0 0  
Year to date cooling degree days 0 0  
Moisture  
Dew Point 13 °F    
Average Humidity 77    
Maximum Humidity 100    
Minimum Humidity 53    
Precipitation  
Precipitation 0.00 in 0.09 in 0.66 in (2008)
Month to date precipitation 0.06 0.26  
Year to date precipitation 4.03 3.12  
Sea Level Pressure  
Sea Level Pressure 30.13 in    
Wind  
Wind Speed 4 mph (SE)    
Max Wind Speed 12 mph    
Max Gust Speed 15 mph    
Visibility 8 miles    
Events      
T = Trace of Precipitation, MM = Missing Value Source: NWS Daily Summary

Daily Weather History Graph

Daily Weather History Graph

Search for Another Location

Airport or City:

Trip Planner

Search our weather history database for the weather conditions in past years. The results will help you decide how hot, cold, wet, or windy it might be!

Date:

Astronomy

Mar. 03, 2013 Rise Set
Actual Time 6:34 AM CST 5:58 PM CST
Civil Twilight 6:07 AM CST 6:25 PM CST
Nautical Twilight 5:35 AM CST 6:57 PM CST
Astronomical Twilight 5:04 AM CST 7:29 PM CST
Moon No Moon Rise 9:47 AM CST (3/3)
Length of Visible Light 12h 18m
Length of Day
11h 23m
Waning Gibbous, 63% of the Moon is Illuminated
Mar 3
Waning Gibbous
Mar 4
Last Quarter
Mar 11
New
Mar 19
First Quarter
Mar 27
Full

Hourly Weather History & Observations

Time (CST) Temp. Windchill Dew Point Humidity Pressure Visibility Wind Dir Wind Speed Gust Speed Precip Events Conditions
12:53 AM 10.0 °F - 9.0 °F 95% 30.23 in 10.0 mi Calm Calm - N/A   Clear
1:53 AM 10.9 °F - 8.1 °F 88% 30.21 in 10.0 mi Calm Calm - N/A   Clear
2:53 AM 8.1 °F - 5.0 °F 87% 30.20 in 5.0 mi Calm Calm - N/A   Partly Cloudy
3:53 AM 6.1 °F - 3.0 °F 87% 30.19 in 7.0 mi Calm Calm - N/A   Clear
4:53 AM 10.4 °F - 6.8 °F 85% 30.15 in 9.0 mi Calm Calm - N/A   Overcast
5:53 AM 12.0 °F - 9.0 °F 88% 30.19 in 8.0 mi Calm Calm - N/A   Clear
6:53 AM 12.0 °F - 9.0 °F 88% 30.19 in 5.0 mi Calm Calm - N/A   Clear
7:23 AM 10.4 °F - 8.6 °F 92% 30.16 in 1.8 mi Calm Calm - N/A   Clear
7:40 AM 10.4 °F 4.0 °F 8.6 °F 92% 30.16 in 3.0 mi SW 3.5 mph - N/A   Clear
7:53 AM 12.0 °F - 10.9 °F 95% 30.19 in 4.0 mi Calm Calm - N/A   Clear
8:53 AM 17.1 °F - 17.1 °F 100% 30.19 in 6.0 mi Calm Calm - N/A   Overcast
10:53 AM 25.0 °F 19.3 °F 14.0 °F 63% 30.17 in 10.0 mi SSW 4.6 mph - N/A   Overcast
11:53 AM 27.0 °F - 14.0 °F 58% 30.16 in 10.0 mi Calm Calm - N/A   Overcast
12:53 PM 28.0 °F 24.2 °F 15.1 °F 58% 30.14 in 10.0 mi SSE 3.5 mph - N/A   Overcast
1:53 PM 30.0 °F 25.2 °F 16.0 °F 56% 30.10 in 10.0 mi SE 4.6 mph - N/A   Overcast
2:53 PM 30.0 °F 23.2 °F 16.0 °F 56% 30.09 in 10.0 mi ESE 6.9 mph - N/A   Overcast
3:53 PM 30.0 °F 23.2 °F 16.0 °F 56% 30.08 in 10.0 mi East 6.9 mph - N/A   Overcast
4:53 PM 28.9 °F 21.9 °F 16.0 °F 58% 30.08 in 10.0 mi East 6.9 mph - N/A   Overcast
5:53 PM 28.9 °F 21.9 °F 15.1 °F 56% 30.07 in 10.0 mi East 6.9 mph - N/A   Overcast
6:53 PM 28.9 °F 21.9 °F 15.1 °F 56% 30.08 in 10.0 mi ESE 6.9 mph - N/A   Overcast
7:53 PM 28.0 °F 21.7 °F 15.1 °F 58% 30.06 in 10.0 mi ESE 5.8 mph - N/A   Overcast
8:53 PM 28.9 °F 21.1 °F 15.1 °F 56% 30.06 in 10.0 mi ESE 8.1 mph - N/A   Overcast
9:53 PM 28.9 °F 21.1 °F 16.0 °F 58% 30.05 in 10.0 mi ESE 8.1 mph - N/A   Overcast
10:53 PM 28.9 °F 21.1 °F 17.1 °F 61% 30.05 in 10.0 mi SE 8.1 mph - N/A   Overcast
11:53 PM 28.9 °F 20.4 °F 18.0 °F 64% 30.05 in 10.0 mi ESE 9.2 mph - N/A   Overcast